Wetbulb
69.28 72.57 73.17 73.58 73.41 73.21 72.83 72.99 73.06 73.38 73.72 74.13 74.14 74.12 73.97 73.90 73.87 74.03 74.06 73.92 73.87 73.65 72.93 72.69 72.64 72.61 72.37 71.70 70.98 71.19 71.83 71.59 71.44 71.47 71.13 70.35 70.14 70.15 70.49 70.69 71.09 70.81 72.14
70.66 72.78 72.75 73.42 73.25 73.09 72.99 73.02 73.20 73.32 74.01 74.38 74.05 74.02 73.69 73.67 73.53 73.56 73.57 73.53 73.38 72.86 72.63 72.44 72.49 72.02 71.62 71.05 70.87 71.02 71.16 71.11 71.05 71.08 70.88 70.29 70.02 69.80 70.12 70.69 71.56 71.59 72.10
71.04 72.91 73.32 72.68 72.90 73.10 73.22 73.39 73.54 73.92 74.32 74.36 74.07 73.99 73.81 73.67 73.53 73.43 73.39 73.16 73.13 72.84 72.36 72.24 72.04 71.60 70.71 70.24 70.22 70.12 69.90 69.55 70.34 71.05 71.09 67.56 68.47 70.15 69.90 70.09 71.22 71.28 71.40
71.85 72.62 72.84 72.43 72.69 72.90 72.89 73.28 73.59 74.00 74.14 73.82 73.82 74.01 73.75 73.64 73.45 73.41 73.13 72.64 72.82 72.76 72.24 71.89 71.43 70.96 70.19 70.49 70.61 70.48 70.66 70.30 69.41 69.72 69.11 66.40 66.89 69.66 69.78 69.68 70.09 70.63 70.84
70.88 72.35 72.68 72.01 72.15 72.69 72.69 73.02 73.43 73.38 73.24 73.36 73.38 73.87 73.72 73.51 73.45 73.08 72.59 72.20 72.43 72.71 71.92 71.62 70.84 70.55 70.12 69.68 69.93 69.36 68.91 68.30 68.03 67.32 65.99 64.32 65.74 68.26 68.88 69.07 69.42 69.92 70.44
70.51 72.07 71.28 71.01 71.77 72.35 72.76 73.18 73.28 72.97 72.58 72.63 72.83 73.28 73.60 73.44 72.97 72.50 71.93 72.02 72.40 72.55 71.72 71.08 70.55 70.24 69.42 68.85 68.06 67.23 67.00 66.94 66.94 65.71 66.76 67.51 66.70 69.36 68.66 68.54 69.24 69.41 70.14
70.47 71.11 71.80 70.50 71.55 72.39 73.01 73.05 72.66 72.35 71.93 72.18 72.52 72.63 73.01 72.77 72.29 71.50 71.26 71.44 71.61 71.72 71.20 70.19 69.55 68.78 67.93 67.05 66.56 65.84 65.48 65.98 64.03 64.67 67.09 66.60 67.49 69.29 68.80 68.31 68.26 69.02 69.38
70.10 71.12 71.79 71.90 71.45 72.01 72.23 72.09 71.51 71.40 71.49 71.58 71.79 72.12 72.20 71.87 71.23 71.09 70.92 70.74 70.32 69.91 69.46 68.50 67.56 66.95 66.51 66.22 65.87 64.74 64.33 65.04 63.87 63.98 67.03 67.20 69.31 69.25 68.93 68.29 68.64 68.73 68.96
70.29 70.65 71.00 71.94 72.16 71.41 70.94 70.67 70.24 70.31 70.53 70.58 70.85 70.85 70.66 70.14 70.15 70.43 70.36 70.19 69.59 68.88 68.03 67.30 66.46 65.93 65.95 65.60 65.24 64.21 63.89 64.79 63.11 62.70 67.61 68.03 70.00 69.81 69.12 68.68 68.22 68.51 68.44
69.35 69.99 70.34 70.70 71.59 71.78 71.01 69.82 69.46 69.39 69.55 69.86 70.02 69.84 69.21 69.20 69.45 69.64 69.47 69.48 68.86 68.23 67.47 66.81 65.83 65.42 65.21 64.64 64.31 63.94 64.02 64.65 61.58 62.00 67.28 67.85 70.13 69.76 69.37 68.95 68.52 68.22 68.40
68.33 68.74 70.02 70.20 70.52 70.48 70.48 70.30 69.37 69.56 69.27 69.19 69.59 68.92 67.86 68.81 68.81 69.14 68.48 68.49 68.17 67.37 66.82 66.23 65.60 64.97 64.51 64.37 64.41 64.47 64.70 61.76 61.27 66.75 66.41 68.44 70.63 70.42 69.71 69.13 69.10 68.81 68.53
66.32 67.31 68.83 70.04 70.48 70.45 71.23 69.85 68.97 69.88 69.46 69.43 69.05 68.20 67.82 67.61 67.46 68.52 67.99 67.76 67.50 66.89 66.57 65.90 65.53 64.95 64.52 62.62 62.34 63.96 62.30 61.55 61.55 67.04 67.00 68.36 70.94 71.16 70.32 70.03 69.42 68.98 68.64
66.77 67.32 67.82 68.99 70.32 69.74 69.69 69.21 68.91 68.71 68.62 68.31 67.97 67.28 65.92 66.90 66.86 65.71 65.81 65.87 64.69 66.37 64.43 64.65 64.14 63.86 63.36 62.94 63.71 62.54 62.05 61.84 60.76 66.66 67.39 67.80 70.38 71.35 70.93 70.46 70.01 69.76 69.21
66.57 66.78 67.44 68.37 69.29 67.90 69.15 69.02 68.24 67.92 68.03 67.58 67.85 67.16 66.14 66.03 64.56 65.43 65.32 64.79 63.95 63.54 62.93 62.84 63.23 63.74 63.76 64.32 64.55 64.51 63.68 63.11 62.50 65.73 66.00 66.56 68.67 70.88 70.64 70.46 70.74 70.52 69.00
66.92 67.22 67.65 67.93 68.27 67.61 68.00 67.79 67.57 67.23 67.73 67.67 68.02 67.54 66.92 66.81 65.32 65.96 65.24 65.15 65.00 64.06 63.70 63.95 64.41 65.47 65.09 65.58 65.95 65.20 64.90 63.76 62.28 65.26 65.29 65.29 66.43 68.82 70.69 70.52 70.27 70.40 69.52
68.27 67.62 68.15 68.20 68.77 68.27 67.54 66.86 67.47 67.61 68.04 67.84 68.30 68.46 67.72 67.42 66.34 65.99 66.21 64.93 64.35 65.50 64.82 65.49 65.73 66.19 66.74 67.43 66.62 66.61 66.29 63.80 62.70 62.45 64.24 64.25 64.49 66.49 68.40 70.34 70.63 70.46 70.43
68.54 68.85 68.16 68.95 69.40 68.76 68.64 67.06 67.96 68.29 68.29 68.24 68.85 69.29 68.77 68.09 67.86 66.64 65.22 64.46 64.44 65.15 65.11 65.99 65.85 67.30 66.65 67.68 66.94 67.62 67.25 66.46 65.71 64.24 64.37 63.83 63.88 63.64 65.27 67.39 68.75 69.37 69.85
69.24 68.66 68.96 70.09 69.55 69.36 69.16 68.77 68.52 68.87 68.41 68.94 69.29 69.89 69.29 68.46 68.99 66.77 65.56 65.48 65.36 65.05 65.37 66.00 64.79 66.37 66.99 66.85 66.54 67.03 66.82 66.98 66.53 66.56 65.99 65.59 65.09 65.27 63.48 65.04 66.60 67.30 67.75
69.44 69.23 69.01 69.86 69.55 69.62 69.25 69.39 69.22 68.88 69.00 69.50 69.36 70.07 69.41 68.66 69.27 67.02 66.21 65.91 65.17 65.28 64.25 64.85 64.72 65.08 66.19 66.19 65.47 66.39 66.44 66.37 66.27 66.69 66.33 65.95 65.52 65.33 64.87 63.39 64.16 64.49 65.38
69.30 69.55 69.19 69.48 70.20 70.14 69.38 69.09 68.63 68.14 69.13 69.42 68.76 69.56 69.69 69.22 68.80 67.74 66.20 65.83 65.20 64.17 63.77 64.23 64.42 65.85 65.21 66.11 66.69 66.12 66.34 66.18 66.21 65.84 65.16 65.18 64.15 65.37 65.44 64.85 63.85 63.67 62.24
68.71 68.67 68.62 68.32 69.48 69.90 68.85 67.94 67.23 66.82 67.68 68.22 68.19 68.56 68.78 68.78 68.09 67.45 66.01 65.36 64.42 63.62 63.19 64.34 64.64 64.56 65.89 66.25 62.61 62.20 62.55 64.27 64.56 64.16 65.92 63.76 64.15 63.65 63.98 63.88 63.51 61.62 59.94
67.33 68.11 68.09 68.13 68.78 69.49 69.35 69.10 68.36 67.83 67.09 67.74 67.47 67.73 68.36 67.96 68.08 67.70 66.24 65.11 64.36 63.39 63.29 65.14 65.51 64.17 64.71 63.73 61.10 60.71 57.64 58.98 61.62 64.11 63.77 62.68 60.66 60.62 59.80 56.57 55.06 57.65 53.68
66.70 67.31 67.77 67.83 68.35 69.35 69.35 69.12 66.83 66.25 66.03 65.32 66.21 66.95 67.55 68.35 68.08 68.06 66.66 65.00 64.48 64.01 63.64 64.64 64.62 63.57 61.49 63.11 63.53 60.82 56.27 54.53 56.01 60.18 59.65 59.99 58.11 56.39 55.82 54.03 54.61 55.30 50.54
66.54 68.00 68.16 68.12 68.37 68.99 69.06 68.16 66.95 66.30 64.96 66.29 66.22 66.81 66.91 68.59 67.79 67.95 67.10 65.52 64.17 64.47 64.69 64.73 64.73 63.33 63.09 61.21 61.68 62.17 60.09 58.65 54.87 52.77 56.01 55.10 53.40 51.33 50.67 50.93 51.29 51.19 49.19
65.51 67.78 68.24 68.31 68.11 68.71 68.42 68.10 67.12 66.54 66.68 66.70 66.28 65.39 65.75 67.69 67.71 67.60 66.70 65.21 64.50 65.80 65.40 64.86 64.26 64.21 63.30 61.85 60.01 59.29 58.47 58.22 56.59 53.79 50.69 49.73 49.80 48.77 49.71 49.54 49.97 48.74 48.03
60.47 67.93 68.29 67.96 67.74 68.17 68.19 67.84 66.91 66.11 65.99 65.01 65.14 64.59 64.74 66.60 66.71 66.57 65.92 65.69 65.18 66.11 65.51 65.23 63.63 63.34 62.19 61.73 60.90 59.40 57.14 54.42 53.98 51.46 49.43 46.03 44.72 46.68 47.87 47.65 48.75 49.31 47.01
MSLP
1009.73 1010.24 1010.74 1010.97 1011.34 1011.88 1012.47 1012.97 1013.26 1013.68 1014.19 1014.63 1014.99 1015.16 1015.37 1015.70 1016.00 1016.45 1016.83 1017.12 1017.30 1017.64 1017.88 1018.11 1018.25 1018.19 1018.22 1018.33 1018.46 1018.63 1018.91 1018.97 1019.04 1019.13 1019.20 1019.23 1019.29 1019.30 1019.21 1019.16 1019.05 1018.91 1018.84
1008.11 1009.64 1010.70 1011.01 1011.31 1011.88 1012.55 1012.97 1013.39 1013.78 1014.33 1014.87 1015.25 1015.62 1015.83 1016.08 1016.34 1016.79 1017.17 1017.49 1017.67 1017.86 1018.13 1018.44 1018.45 1018.52 1018.55 1018.74 1018.83 1019.04 1019.26 1019.27 1019.36 1019.44 1019.51 1019.55 1019.47 1019.51 1019.45 1019.47 1019.33 1019.19 1019.16
1008.48 1009.50 1010.67 1010.96 1011.27 1011.99 1012.60 1013.06 1013.49 1013.93 1014.37 1015.00 1015.39 1015.84 1016.20 1016.45 1016.62 1017.08 1017.40 1017.77 1017.97 1018.22 1018.48 1018.59 1018.73 1018.85 1018.96 1019.02 1019.03 1019.29 1019.38 1019.36 1019.51 1019.57 1019.57 1019.74 1019.63 1019.67 1019.64 1019.68 1019.60 1019.50 1019.41
1008.68 1009.80 1010.60 1010.93 1011.38 1011.92 1012.48 1013.05 1013.50 1014.07 1014.50 1015.03 1015.54 1015.97 1016.38 1016.69 1016.92 1017.16 1017.57 1017.90 1018.21 1018.51 1018.62 1018.69 1018.92 1019.06 1019.18 1019.16 1019.17 1019.39 1019.46 1019.46 1019.63 1019.55 1019.50 1019.58 1019.54 1019.73 1019.66 1019.69 1019.77 1019.79 1019.73
1009.15 1009.88 1010.54 1010.98 1011.37 1011.87 1012.45 1013.04 1013.69 1014.11 1014.67 1015.10 1015.63 1015.99 1016.34 1016.65 1016.98 1017.37 1017.69 1018.03 1018.32 1018.59 1018.75 1018.88 1019.10 1019.22 1019.41 1019.45 1019.43 1019.26 1019.40 1019.40 1019.31 1019.12 1019.46 1019.56 1019.47 1019.81 1020.02 1020.02 1020.06 1020.13 1020.02
1009.47 1010.22 1010.84 1011.13 1011.44 1011.91 1012.44 1013.20 1013.78 1014.28 1014.79 1015.29 1015.77 1016.13 1016.45 1016.73 1017.15 1017.57 1017.93 1018.26 1018.41 1018.67 1019.00 1019.22 1019.35 1019.48 1019.62 1019.70 1019.61 1019.36 1019.43 1019.50 1019.47 1019.46 1019.68 1019.60 1019.61 1019.93 1020.17 1020.30 1020.44 1020.46 1020.36
1009.72 1010.47 1011.09 1011.47 1011.75 1012.07 1012.56 1013.23 1013.84 1014.36 1014.88 1015.29 1015.82 1016.24 1016.58 1016.85 1017.29 1017.69 1018.08 1018.38 1018.60 1018.80 1019.14 1019.41 1019.56 1019.64 1019.81 1019.76 1019.77 1019.53 1019.35 1019.53 1019.76 1019.44 1019.80 1019.93 1019.98 1020.05 1020.28 1020.48 1020.59 1020.60 1020.67
1009.66 1010.55 1011.22 1011.82 1012.11 1012.44 1012.71 1013.21 1013.87 1014.42 1014.86 1015.39 1015.86 1016.24 1016.72 1017.02 1017.40 1017.80 1018.14 1018.49 1018.78 1018.99 1019.26 1019.47 1019.69 1019.84 1019.95 1019.93 1019.90 1019.74 1019.53 1019.44 1019.89 1019.79 1020.09 1020.01 1020.12 1020.18 1020.35 1020.57 1020.66 1020.69 1020.72
1009.72 1010.58 1011.19 1011.74 1012.28 1012.60 1012.98 1013.33 1013.88 1014.47 1014.92 1015.36 1015.92 1016.37 1016.82 1017.11 1017.51 1017.89 1018.23 1018.59 1018.93 1019.18 1019.37 1019.55 1019.77 1019.97 1020.08 1020.04 1019.99 1019.82 1019.66 1019.51 1019.62 1020.08 1020.12 1019.98 1020.14 1020.12 1020.27 1020.57 1020.70 1020.79 1020.83
1009.94 1010.56 1011.23 1011.65 1012.22 1012.78 1013.26 1013.54 1013.94 1014.51 1015.04 1015.42 1015.95 1016.43 1016.82 1017.22 1017.64 1017.94 1018.32 1018.64 1018.99 1019.30 1019.34 1019.49 1019.70 1019.94 1019.98 1019.90 1019.91 1019.83 1019.79 1019.67 1019.90 1019.86 1019.90 1020.19 1020.26 1020.32 1020.37 1020.65 1020.93 1021.04 1021.08
1010.09 1010.62 1011.13 1011.60 1012.12 1012.76 1013.37 1013.86 1014.22 1014.60 1015.12 1015.58 1016.13 1016.53 1016.92 1017.34 1017.77 1018.04 1018.30 1018.62 1019.02 1019.30 1019.37 1019.54 1019.70 1019.88 1019.99 1019.98 1019.91 1019.93 1019.99 1019.72 1020.00 1019.89 1020.12 1020.12 1020.27 1020.40 1020.49 1020.70 1020.98 1021.14 1021.21
1009.84 1010.50 1011.00 1011.54 1011.98 1012.56 1013.20 1013.87 1014.39 1014.81 1015.24 1015.72 1016.18 1016.51 1016.90 1017.28 1017.61 1017.93 1018.28 1018.67 1018.94 1019.18 1019.34 1019.52 1019.60 1019.79 1019.95 1020.04 1019.92 1019.95 1020.06 1019.60 1019.75 1019.85 1020.22 1020.14 1020.23 1020.34 1020.50 1020.70 1020.97 1021.14 1021.26
1009.18 1010.00 1010.74 1011.40 1011.80 1012.21 1012.80 1013.70 1014.27 1014.72 1015.24 1015.62 1016.04 1016.34 1016.79 1017.15 1017.46 1017.91 1018.34 1018.67 1018.99 1019.18 1019.37 1019.46 1019.61 1019.76 1019.89 1019.98 1019.82 1019.82 1019.92 1019.60 1020.01 1019.85 1019.98 1019.99 1020.16 1020.26 1020.40 1020.64 1020.88 1021.02 1021.20
1008.76 1009.47 1010.26 1010.93 1011.65 1012.08 1012.52 1013.23 1013.86 1014.25 1014.85 1015.33 1015.75 1016.07 1016.54 1016.94 1017.37 1017.79 1018.12 1018.51 1018.83 1019.02 1019.26 1019.39 1019.54 1019.58 1019.62 1019.58 1019.60 1019.53 1019.54 1019.13 1019.37 1019.76 1020.14 1020.08 1020.10 1020.17 1020.29 1020.51 1020.73 1020.94 1021.15
1007.99 1008.76 1009.61 1010.34 1011.14 1011.79 1012.31 1012.67 1013.38 1013.90 1014.37 1014.78 1015.34 1015.71 1016.02 1016.50 1016.92 1017.38 1017.80 1018.11 1018.43 1018.69 1018.85 1019.08 1019.28 1019.29 1019.27 1019.13 1019.10 1018.87 1019.02 1019.18 1019.40 1019.75 1019.83 1019.98 1019.99 1020.02 1020.15 1020.31 1020.50 1020.76 1020.97
1007.29 1008.00 1008.88 1009.76 1010.38 1011.13 1011.82 1012.24 1012.82 1013.42 1013.97 1014.37 1014.79 1015.15 1015.46 1015.87 1016.31 1016.72 1017.27 1017.62 1017.94 1018.06 1018.34 1018.46 1018.64 1018.75 1018.68 1018.69 1018.64 1018.81 1018.97 1019.00 1019.06 1019.62 1019.88 1020.02 1019.99 1019.91 1019.95 1020.08 1020.33 1020.55 1020.71
1006.22 1007.09 1008.02 1009.00 1009.85 1010.37 1011.10 1011.82 1012.12 1012.68 1013.36 1013.86 1014.21 1014.62 1014.88 1015.21 1015.61 1016.00 1016.59 1017.01 1017.26 1017.46 1017.75 1017.93 1018.20 1018.24 1018.41 1018.40 1018.62 1018.68 1018.75 1018.83 1018.94 1019.09 1019.38 1019.58 1019.72 1019.82 1019.95 1020.08 1020.30 1020.52 1020.68
1005.24 1006.22 1007.13 1008.07 1009.13 1009.78 1010.40 1010.95 1011.42 1011.92 1012.41 1012.90 1013.40 1014.04 1014.42 1014.67 1015.01 1015.44 1015.88 1016.36 1016.52 1016.92 1017.22 1017.36 1017.92 1018.18 1018.30 1018.49 1018.75 1018.74 1018.62 1018.64 1018.69 1018.82 1018.86 1019.13 1019.27 1019.57 1019.92 1020.04 1020.19 1020.42 1020.53
1004.10 1005.32 1006.28 1007.06 1008.13 1008.99 1009.62 1010.38 1010.75 1011.08 1011.73 1011.99 1012.67 1013.11 1013.83 1014.29 1014.57 1014.96 1015.32 1015.67 1015.96 1016.35 1016.82 1017.05 1017.42 1017.78 1018.42 1018.52 1018.58 1018.67 1018.77 1018.94 1018.62 1018.52 1018.56 1018.62 1019.02 1019.23 1019.48 1020.09 1020.25 1020.34 1020.58
1003.24 1004.09 1005.01 1006.00 1007.13 1008.33 1009.19 1009.85 1010.48 1010.75 1011.37 1011.55 1012.11 1012.37 1012.95 1013.58 1014.07 1014.50 1014.99 1015.26 1015.56 1016.25 1016.70 1016.87 1017.26 1017.69 1017.94 1018.13 1018.40 1018.51 1018.60 1018.64 1018.62 1018.44 1018.53 1018.73 1018.97 1019.04 1019.18 1019.44 1019.94 1020.14 1020.40
1002.45 1003.39 1004.29 1005.22 1006.11 1007.37 1008.39 1009.01 1009.69 1009.91 1010.70 1011.20 1011.62 1011.94 1012.40 1012.82 1013.50 1014.16 1014.62 1015.05 1015.29 1015.81 1016.32 1016.73 1017.14 1017.55 1017.93 1018.08 1018.59 1018.77 1018.70 1018.50 1018.67 1018.78 1018.42 1018.83 1018.86 1019.14 1019.33 1019.58 1020.14 1020.56 1021.43
1001.55 1002.46 1003.39 1004.13 1005.23 1005.94 1006.91 1007.72 1008.72 1009.45 1010.26 1010.77 1011.32 1011.64 1012.06 1012.54 1012.92 1013.55 1014.21 1014.56 1014.96 1015.43 1015.91 1016.36 1016.78 1017.41 1017.79 1018.03 1018.69 1019.28 1019.19 1019.04 1018.64 1018.56 1018.67 1019.30 1019.49 1019.46 1019.94 1020.22 1020.34 1020.87 1021.78
1000.69 1001.43 1002.23 1003.19 1004.09 1004.97 1005.91 1007.36 1008.43 1009.31 1010.10 1010.74 1011.03 1011.02 1011.30 1011.77 1012.31 1012.75 1013.44 1014.08 1014.53 1014.90 1015.46 1015.96 1016.41 1016.92 1017.74 1018.10 1018.19 1018.76 1019.46 1019.61 1019.45 1019.32 1019.43 1019.70 1019.98 1020.37 1020.54 1020.53 1021.00 1021.61 1022.24
999.46 1000.17 1001.11 1002.14 1003.16 1004.10 1005.28 1006.32 1007.18 1007.62 1008.10 1008.35 1009.03 1010.11 1010.66 1011.14 1011.64 1012.11 1012.66 1013.32 1013.95 1014.43 1014.97 1015.46 1015.97 1016.46 1017.15 1017.90 1018.36 1018.49 1018.81 1019.08 1019.65 1020.18 1020.28 1020.69 1020.72 1020.96 1021.16 1021.12 1021.53 1022.40 1022.91
998.35 999.12 1000.20 1001.17 1002.18 1003.15 1004.15 1004.87 1006.00 1007.03 1007.21 1008.01 1008.91 1009.49 1010.21 1010.75 1011.01 1011.40 1012.03 1012.79 1013.44 1013.90 1014.34 1014.97 1015.58 1016.05 1016.53 1017.34 1017.89 1018.62 1018.93 1019.13 1019.38 1020.18 1021.12 1021.53 1021.50 1021.72 1021.73 1021.71 1021.97 1022.68 1023.06
997.57 998.29 999.48 1000.46 1001.50 1002.42 1003.29 1004.07 1004.80 1005.67 1006.65 1007.38 1008.03 1008.71 1009.24 1009.86 1010.58 1010.92 1011.38 1012.10 1012.80 1013.55 1014.02 1014.51 1015.08 1015.76 1016.44 1016.96 1017.56 1018.13 1018.41 1019.01 1019.59 1020.28 1021.18 1021.74 1022.02 1022.46 1022.23 1022.12 1022.60 1023.12 1023.58
Wind_Speed
13 15 16 21 21 20 18 18 19 18 17 17 17 17 19 18 18 17 16 16 15 14 15 14 13 15 15 15 14 13 12 12 12 13 14 16 17 16 16 15 13 13 15
22 18 18 21 22 21 18 19 19 19 18 17 17 16 17 18 18 17 15 14 14 15 15 13 13 14 14 11 10 11 11 10 10 11 13 14 17 16 15 14 13 12 14
19 17 16 20 22 22 20 19 19 19 19 18 17 16 15 16 17 16 15 13 13 13 14 14 13 13 12 9 8 9 9 7 6 6 4 5 7 15 16 15 13 15 15
18 14 14 20 22 23 21 19 19 19 19 19 17 16 15 15 15 16 15 13 12 12 14 14 13 12 11 8 5 6 6 6 4 3 4 5 10 14 14 15 15 15 15
17 13 15 17 21 22 22 20 18 19 18 19 17 17 16 15 15 14 13 12 12 11 12 12 12 11 8 6 3 6 7 6 8 7 6 6 7 12 14 14 13 13 13
14 13 18 14 19 21 22 20 19 19 18 18 16 16 16 15 14 13 12 11 11 11 11 10 10 9 8 5 4 7 9 10 10 6 4 8 8 14 14 13 12 12 12
13 13 14 12 17 20 21 20 19 18 18 18 16 15 15 15 14 13 12 11 10 10 10 9 8 7 6 5 3 7 9 9 5 5 6 6 8 15 14 13 12 11 12
16 13 14 13 14 17 20 19 18 18 18 16 16 16 14 14 14 13 12 11 10 10 9 9 7 6 4 3 2 4 8 9 5 4 4 6 10 14 13 12 10 10 10
16 15 15 15 13 15 16 18 17 17 17 17 15 14 13 13 13 12 12 11 10 9 9 8 7 5 3 1 1 3 6 9 4 2 6 5 11 13 13 11 10 9 9
14 14 13 14 15 11 11 16 17 16 15 16 14 13 13 12 12 12 12 11 10 9 9 8 7 5 4 4 5 7 7 9 5 3 6 4 10 12 13 11 9 8 8
11 12 12 12 12 13 9 10 14 16 15 15 13 12 11 6 7 9 9 11 10 9 9 8 7 6 5 6 8 7 7 4 1 3 3 11 11 12 12 10 7 7 6
14 12 12 12 12 11 9 10 8 10 9 8 8 9 6 7 6 8 8 11 11 10 9 8 8 7 5 3 4 5 3 5 2 4 3 11 11 11 11 9 7 6 5
16 12 12 12 12 12 10 8 5 5 6 6 8 8 6 6 6 4 4 4 4 7 3 5 4 3 4 4 4 3 5 5 3 4 6 11 11 11 10 8 6 5 4
17 15 14 14 13 9 9 8 8 8 7 6 7 9 5 4 5 6 5 5 5 4 5 4 3 4 6 6 6 6 6 2 3 3 3 8 10 10 9 7 5 6 4
18 17 17 16 14 10 12 9 8 9 8 8 8 9 6 5 6 7 6 6 6 5 5 5 5 5 6 7 7 3 2 3 3 3 4 9 9 10 10 9 7 7 6
19 19 19 18 17 14 12 13 10 9 8 8 8 9 10 5 7 8 7 7 6 7 7 6 8 7 6 5 5 5 4 4 3 6 4 4 8 9 10 10 8 7 7
20 20 21 19 18 17 13 12 10 9 9 9 9 11 12 9 8 9 7 8 8 7 8 6 6 4 4 2 4 4 4 4 4 5 6 4 5 8 7 7 7 6 5
21 22 20 18 19 18 15 13 11 10 11 10 9 10 14 11 8 8 6 6 6 5 5 6 5 3 4 4 3 4 4 3 5 4 3 4 4 3 5 6 7 7 8
23 22 21 21 22 19 17 10 13 12 10 10 8 11 13 10 7 7 6 5 6 4 4 4 2 3 3 3 4 4 4 4 5 4 6 5 5 4 3 6 6 4 6
23 24 23 18 22 20 13 9 8 8 8 9 8 9 12 8 7 6 5 6 6 5 4 3 3 2 3 4 1 3 4 3 4 4 3 2 2 4 4 5 4 3 7
23 23 24 22 21 17 13 13 8 13 8 8 7 11 11 9 7 7 5 6 6 6 6 5 4 5 3 2 3 2 2 4 4 1 3 3 4 5 5 5 4 5 10
25 24 24 24 21 19 15 14 9 9 6 7 6 8 10 11 11 8 7 7 7 5 7 6 5 3 2 3 3 1 1 4 2 4 4 3 5 5 6 6 8 11 9
26 25 25 25 24 21 20 12 6 5 4 6 10 11 11 14 13 14 10 7 8 8 7 5 6 7 4 1 3 4 2 4 2 3 2 4 6 4 5 6 11 10 9
24 25 26 26 25 21 21 17 20 15 14 13 11 9 11 15 15 15 13 10 8 6 7 6 5 5 5 4 2 1 2 4 3 2 4 4 5 6 6 5 8 10 8
21 23 24 25 25 23 23 22 18 17 14 9 10 12 13 13 16 15 14 11 8 7 8 8 6 6 5 5 4 3 1 1 3 3 3 1 4 4 4 5 7 7 8
14 21 22 24 23 22 22 22 23 23 16 12 14 12 12 12 12 14 14 13 12 7 9 8 6 7 5 4 3 3 4 4 3 3 3 2 3 1 2 4 7 7 6
Wind_Direction
153 157 158 142 138 132 129 126 121 116 111 106 102 98 96 94 91 89 89 92 96 98 98 97 95 90 86 85 85 83 82 82 85 85 80 79 75 68 65 58 59 59 59
137 149 159 145 137 133 133 129 125 122 118 114 108 104 104 105 103 100 99 100 105 106 106 106 98 94 92 90 86 86 88 93 102 112 91 82 81 73 69 58 66 65 66
134 143 157 144 138 135 133 131 130 128 124 120 117 113 113 112 111 109 106 105 106 110 115 111 108 103 99 92 88 93 92 102 117 151 83 107 90 77 71 61 56 61 64
129 142 150 143 140 138 137 136 135 133 129 126 125 123 121 117 115 114 113 112 115 120 118 116 115 113 112 106 88 75 75 49 38 275 216 124 94 82 84 78 68 62 61
131 137 148 144 141 140 140 139 137 135 133 131 133 131 129 124 119 119 120 123 123 119 119 119 123 118 108 103 59 2 25 15 0 5 117 136 100 90 80 76 74 69 62
128 128 149 140 140 142 141 140 140 137 136 134 136 136 133 128 127 125 124 124 121 119 117 122 119 114 112 96 27 352 6 1 356 14 100 104 100 100 90 82 76 72 68
116 129 144 133 142 144 143 144 142 140 138 140 140 138 139 135 132 128 127 126 122 118 122 117 108 105 111 100 49 354 350 349 12 9 107 97 109 105 98 89 81 74 69
125 132 140 136 141 144 144 142 142 144 143 143 142 142 144 137 134 135 133 130 126 121 121 120 115 112 103 88 49 348 328 326 42 7 124 109 124 113 105 96 87 81 76
131 135 144 151 147 145 146 143 144 146 146 144 145 145 144 140 138 136 134 132 129 132 134 122 116 117 121 116 295 287 300 311 347 21 145 136 137 124 118 110 100 91 81
132 138 144 151 155 149 150 145 144 146 147 146 146 146 146 141 140 138 138 138 140 145 138 133 139 160 186 207 240 263 284 307 356 282 140 151 141 132 121 113 104 95 90
134 141 141 148 152 155 147 150 146 147 146 143 146 144 138 141 144 142 148 147 149 151 146 154 165 187 223 251 262 277 299 281 74 123 135 155 150 138 129 125 119 111 96
149 151 149 150 151 148 156 150 146 149 151 152 154 153 153 151 154 160 150 157 157 160 162 179 192 207 237 267 274 277 269 272 13 131 161 158 156 142 136 132 134 125 106
153 154 155 154 154 156 149 154 154 150 154 152 157 158 171 161 168 139 142 152 153 168 179 196 212 222 221 233 261 237 258 268 135 173 177 163 158 152 143 145 153 146 132
156 158 158 159 161 164 148 161 161 158 163 162 170 171 171 165 149 154 158 163 165 172 193 198 206 220 227 227 232 218 215 274 55 111 160 166 166 156 152 156 167 170 158
163 163 166 163 166 167 158 162 164 168 169 167 168 181 181 172 164 163 168 169 178 178 197 189 209 216 227 227 214 189 240 251 129 160 172 190 176 169 170 174 176 179 188
168 170 170 170 170 172 170 171 167 171 170 171 176 183 191 176 175 172 171 178 189 187 198 200 200 214 224 201 180 201 216 212 244 147 161 189 203 190 187 187 192 199 207
175 172 173 171 173 179 168 172 173 170 174 183 183 182 192 193 179 185 171 181 195 190 198 203 204 202 182 176 181 204 206 199 190 190 177 189 203 213 198 198 204 209 231
171 176 171 171 176 183 183 177 178 181 181 185 182 181 193 197 176 181 180 178 192 171 179 174 171 166 180 170 184 211 212 205 228 209 222 183 203 184 221 196 189 219 235
171 172 174 173 177 183 186 173 184 181 180 187 167 177 187 194 176 171 179 182 187 158 171 161 180 159 162 193 211 213 216 223 223 217 223 226 191 178 172 178 208 212 253
170 174 176 169 174 180 184 176 180 173 177 168 164 165 167 174 177 164 178 175 176 155 180 170 144 169 171 193 243 266 221 233 223 226 218 126 158 146 136 161 176 194 256
172 175 178 173 172 171 178 187 180 189 169 177 170 165 176 176 173 175 189 180 178 165 180 181 164 180 196 125 111 349 328 260 272 252 221 119 120 140 132 94 89 80 81
176 179 180 181 172 179 179 190 188 178 177 169 173 173 180 184 194 186 188 187 176 166 179 183 168 123 144 154 130 47 342 330 287 208 120 137 100 86 76 86 73 94 86
178 181 181 181 179 181 182 174 161 141 131 165 189 193 185 187 192 199 189 177 178 174 185 178 166 154 158 123 125 152 118 220 341 13 53 114 110 74 72 69 85 94 95
183 183 180 179 182 182 175 177 184 191 187 202 198 184 189 188 190 194 188 181 175 179 175 171 171 154 133 161 105 102 102 141 151 75 32 32 66 67 73 57 72 103 99
182 182 181 180 181 176 180 181 183 194 206 189 189 186 188 187 190 188 183 180 183 187 176 163 157 160 160 152 144 146 146 116 93 121 161 121 49 34 64 77 93 94 84
177 175 178 178 181 180 180 184 185 195 197 190 186 185 185 181 186 185 178 186 194 178 168 159 150 146 145 124 129 164 156 153 171 133 127 127 134 40 79 53 80 89 84